Dati Storici

Data ora Umidita' aria (%) Temperatura aria (°C) Rad globale (W/m²) Gonioanemometro (°) Tacoanemometro (m/s) Pioggia (mm)
27-06-2020 13:30 59.6 % 28.702 109.546 2.961 0 0
27-06-2020 13:20 61.6 % 28.323 123.377 0.58 0 0
27-06-2020 13:10 63.1 % 27.914 72.104 2.011 0 0
27-06-2020 13:00 67.2 % 27.825 69.415 0.775 0 0
27-06-2020 12:50 67.3 % 27.202 100.702 3.026 0 0
27-06-2020 12:40 67.8 % 27.287 91.865 1.515 0 0
27-06-2020 12:30 68.1 % 27.426 140.296 2.101 0 0
27-06-2020 12:20 68.4 % 27.082 149.357 3.161 0 0
27-06-2020 12:10 69.4 % 27.188 81.316 0.815 0 0
27-06-2020 12:00 67.4 % 27.36 172.925 2.209 0 0
27-06-2020 11:50 68.5 % 27.686 104.524 1.591 0 0
27-06-2020 11:40 68.9 % 28.194 107.241 0.953 0 0
27-06-2020 11:30 67.1 % 27.839 159.504 1.017 0 0
27-06-2020 11:20 68.2 % 27.061 81.529 2.617 0 0
27-06-2020 11:10 67.8 % 27.675 129.388 3.574 0 0
27-06-2020 11:00 69.8 % 26.605 205.068 2.037 0 0
27-06-2020 10:50 70.4 % 27.086 167.019 2.827 0 0
27-06-2020 10:40 71.2 % 26.615 149.861 1.054 0 0
27-06-2020 10:30 71 % 27.219 113.709 2.394 0 0
27-06-2020 10:20 71.5 % 26.778 201.304 0.383 0 0

I dati sono presentati in modo automatico a scopo informativo. In seguito a verifica i dati possono subire modifiche o essere invalidati e non riportati negli archivi definitivi.